{"data":{"norad_id":67086,"intl_designator":"2025-298M","name":"STARLINK-35841","alt_names":[],"object_type":"PAYLOAD","status":"ACTIVE","operator":null,"country":"US","launch_date":"2025-12-14","launch_site_code":"AFWTR","launch_vehicle":null,"mission":null,"orbit_class":"UNKNOWN","rcs_meters":null,"size_class":null,"mass_kg":null,"dimensions":null,"purposes":["comms"],"wikipedia_slug":null,"has_3d_model":false,"image_url":null,"decayed_at":null,"tle_current":{"epoch":"2026-05-25T02:55:13.044000Z","epoch_age_seconds":67803,"freshness":"FRESH","line1":"1 67086U 25298M   26145.12167875  .00003780  00000+0  32436-3 0  9996","line2":"2 67086  70.0009 181.8393 0003716 265.4484  94.6250 14.98332874 24661","mean_motion":14.98332874,"eccentricity":0.0003716,"inclination_deg":70.0009,"raan_deg":181.8393,"arg_perigee_deg":265.4484,"mean_anomaly_deg":94.625,"bstar":0.00032436,"rev_number":2466,"period_min":96.106814779798,"perigee_km":569.46431497505,"apogee_km":574.62969172635,"semimajor_km":6950.1840033507,"source":"CELESTRAK","updated_at":"2026-05-25T13:38:21.467967Z"}}}